Weather in Puerto Penasco

Mexico     31°18′44″N   113°32′23″W
temp.,
°C
wind,
m/s
gust,
m/s
humid.,
%
clouds,
%
prec.,
mm/h
press.,
hPa
HPBL,
m
6 may, thu
thu623:00+23ese11540 0.0 101311
02:00+23se44485 0.0 101239
05:00+22sse56660 0.0 1012115
08:00+22sse5771100 0.0 1014199
11:00+22s56705 0.0 1015235
14:00+23s56663 0.0 1013200
17:00+23sse45630 0.0 1011134
20:00+23sse46690 0.0 101193
7 may, fri
fri723:00+23se57740 0.0 1012126
02:00+22se68750 0.0 1011182
05:00+22se68750 0.0 1011228
08:00+22s57680 0.0 1012304
11:00+23sse56630 0.0 1012280
14:00+23sse57592 0.0 1010218
17:00+23sse56580 0.0 1008147
20:00+23sse7116211 0.0 1008178
8 may, sat
sat823:00+23s696778 0.0 1008226
02:00+22sse6767100 0.0 1008331
05:00+21sse896896 0.0 1008387
08:00+21sse78655 0.0 1010473
11:00+22s76670 0.0 1011397
14:00+22ssw65660 0.0 1009274
17:00+22s44610 0.0 1008192
20:00+22se56620 0.0 1008113
9 may, sun
sun923:00+22se57650 0.0 1008145
02:00+22sse79730 0.0 1008268
05:00+21sse811650 0.0 1008441
08:00+21sse811570 0.0 1009501
11:00+22s913590 0.0 1009607
14:00+22sse912580 0.0 1007430
17:00+23sse913580 0.0 1005318
20:00+23s1216560 0.0 1005543
10 may, mon
mon1023:00+21s1113650 0.0 1005518
02:00+20s1212620 0.0 1005748
05:00+20sse1010650 0.0 1006720
08:00+20sse1011680 0.0 1008684
11:00+22ssw99700 0.0 1008583
14:00+21ssw77630 0.0 1008489
17:00+22s68590 0.0 1007372
20:00+23s710630 0.0 1008408